Flag for U.S.A. Weather past 2 weeks in Annapolis, Maryland, U.S.A.

Now
78 °F

Passing clouds.


Feels Like: 80 °F
Forecast: 70 / 81 °F
Wind: 5 mph from Southwest

Location: Annapolis - United States Naval Academy

Current Time: Jul 28, 2014 at 3:07:34 AM

Latest Report: Jul 28, 2014 at 1:54 AM


Visibility: 10 mi

Pressure: 29.59 "Hg

Humidity: 79%

Dew point: 71 °F

Location of AnnapolisLocation

Historic Weather in Annapolis — Graph

°F

Annapolis temperature yesterday

Maximum temperature yesterday: 85 °F (at 3:54 PM)
Minimum temperature yesterday: 74 °F (at 6:54 AM)
Average temperature yesterday: 79 °F

Past Weeks' High & Low Weather Summary

 TemperatureHumidityPressure
High91 °F (Jul 13, 3:54 PM)94% (Jul 14, 11:54 PM)30.24 "Hg (Jul 14, 11:54 PM)
Low66 °F (Jul 17, 2:54 AM)36% (Jul 18, 4:54 PM)29.59 "Hg (Jul 28, 1:54 AM)
Average76 °F71%29.99 "Hg
* Reported Jul 13 1:54 AM — Jul 28 1:54 AM, Annapolis, Weather by CustomWeather, © 2014

Note: Actual official high and low records may vary slightly from our data, if they occured in-between our weather recording intervals... More about our weather records

Advertising

Annapolis weather history for previous 24 hours

 ConditionsComfort  
Time TempWeatherWind HumidityBarometerVisibility
1:54 AM
Jul 28
78 °FPassing clouds.5 mph79%29.59 "Hg10 mi
12:54 AM78 °FPassing clouds.7 mph79%29.61 "Hg10 mi
11:54 PM
Jul 27
78 °FPassing clouds.6 mph79%29.63 "Hg10 mi
10:54 PM79 °FPassing clouds.3 mph79%29.66 "Hg10 mi
9:54 PM79 °FClear.7 mph77%29.67 "Hg10 mi
8:54 PM79 °FPartly sunny.7 mph77%29.68 "Hg10 mi
7:54 PM80 °FPassing clouds.6 mph71%29.69 "Hg10 mi
6:54 PM81 °FPassing clouds.8 mph69%29.70 "Hg10 mi
5:54 PM83 °FSunny.8 mph65%29.71 "Hg10 mi
4:54 PM83 °FSunny.9 mph63%29.73 "Hg10 mi
3:54 PM85 °FSunny.7 mph61%29.75 "Hg10 mi
2:54 PM84 °FSunny.10 mph65%29.78 "Hg10 mi
1:54 PM83 °FSunny.10 mph63%29.78 "Hg10 mi
12:54 PM83 °FSunny.12 mph63%29.79 "Hg10 mi
11:54 AM79 °FSunny.7 mph67%29.79 "Hg10 mi
10:54 AM80 °FSunny.5 mph69%29.80 "Hg10 mi
9:54 AM76 °FPartly sunny.7 mph74%29.83 "Hg10 mi
8:54 AM75 °FSunny.5 mph79%29.85 "Hg10 mi
7:54 AM75 °FSunny.No wind82%29.81 "Hg10 mi
6:54 AM74 °FLight rain. Passing clouds.3 mph88%29.81 "Hg9 mi
5:54 AM75 °FLight rain. Passing clouds.3 mph88%29.84 "Hg10 mi
4:54 AM75 °FPassing clouds.6 mph88%29.84 "Hg10 mi
3:54 AM76 °FClear.6 mph85%29.83 "Hg10 mi
Weather by CustomWeather, © 2014

See weather overviewHow to use our weather pages